Location: Namasale
(1.5000°N, 32.6167°E)
Time: 02:16:54
(UTC+00:00)

Hubble Space Telescope - Pass Details

Date: 08 December 2021
Orbit: 535 x 538 km, 28.5° (Epoch: 24 January)

Event Time Altitude Azimuth Distance (km) Brightness Sun altitude
Exits shadow 02:51:13 10° 336° (NNW) 1,777 3.0 -12.1°
Reaches altitude 10° 02:51:15 10° 336° (NNW) 1,767 3.0 -12.1°
Maximum altitude 02:54:28 22° 28° (NNE) 1,182 2.6 -11.4°
Drops below altitude 10° 02:57:41 10° 80° (E) 1,771 4.4 -10.7°
Sets 03:00:19 0° 96° (E) 2,663 6.0 -10.0°
